Regional Weather Roundup
Issued by NWS

Home | Current Version | Previous Version | Text Only | Print | Product List | Glossary Off
Versions: 1 2 3 4 5 6 7 8 9 10 11 12 13 14 15 16 17 18 19 20 21 22 23 24 25 26 27 28 29 30 31 32 33 34 35 36 37 38 39 40 41 42 43 44 45 46 47 48 49 50

000
ASUS44 KMEG 291500
RWRTN
TENNESSEE HOURLY STATE WEATHER ROUNDUP
NATIONAL WEATHER SERVICE MEMPHIS TN
1000 AM CDT FRI MAY 29 2015

TNZ002-004-019-021-049-052-054-088>092-291600-
WEST TENNESSEE

CITY           SKY/WX    TMP DP  RH WIND       PRES   REMARKS
MEMPHIS INTL   PTSUNNY   81  70  69 S10       30.10S
NWS MEMPHIS      N/A     79 N/A N/A MISG        N/A
JACKSON        CLOUDY    73  68  84 S7        30.13S
DYERSBURG      CLOUDY    72  57  60 SE5       30.12F
PARIS          CLOUDY    72  66  83 S7        30.14S
LEXINGTON      CLOUDY    72  66  83 S3        30.14S
$$

TNZ008-025-027-028-033-062-065-066-291600-
NORTH MIDDLE TENNESSEE

CITY           SKY/WX    TMP DP  RH WIND       PRES   REMARKS
NASHVILLE      CLOUDY    73  66  78 S9        30.19S
CLARKSVILLE    CLOUDY    73  67  81 S7        30.16R
COOKEVILLE     MOSUNNY   75  68  78 S9        30.20S
CROSSVILLE     PTSUNNY   72  64  76 VRB6G17   30.26R
$$

TNZ061-075-076-078-094-096-097-291600-
SOUTH MIDDLE TENNESSEE

CITY           SKY/WX    TMP DP  RH WIND       PRES   REMARKS
FAYETTEVILLE   PTSUNNY  N/A N/A N/A MISG      30.20S
TULLAHOMA      PTSUNNY   73  64  73 S8        30.22R
WINCHESTER     PTSUNNY   73  66  78 S9        30.21S
MCMINNVILLE    MOSUNNY   75  72  88 VRB3      30.21S
COLUMBIA       PTSUNNY   73  68  83 S6        30.17R
SHELBYVILLE    CLOUDY    75  68  78 S7        30.21R
$$

TNZ017-018-042-046-047-291600-
NORTHEAST TENNESSEE

CITY           SKY/WX    TMP DP  RH WIND       PRES   REMARKS
TRI CITIES     PTSUNNY   76  64  66 S5        30.26S
ELIZABETHTON   SUNNY     75  63  64 SE6       30.27R
$$

TNZ012-013-036-069-073-074-291600-
CENTRAL EAST TENNESSEE

CITY           SKY/WX    TMP DP  RH WIND       PRES   REMARKS
KNOXVILLE      MOSUNNY   79  65  62 VRB3      30.22S
OAK RIDGE      SUNNY     79  66  64 CALM      30.24S
GATLINBURG     SUNNY     79  64  61 VRB3      30.22S
$$

TNZ083-085-099-291600-
SOUTHEAST TENNESSEE

CITY           SKY/WX    TMP DP  RH WIND       PRES   REMARKS
CHATTANOOGA    CLOUDY    75  67  76 CALM      30.22F
$$

SKY/WX REPORTED AS FAIR MEANS FEW OR NO CLOUDS BELOW
12 THOUSAND FEET.




USA.gov is the U.S. government's official web portal to all federal, state and local government web resources and services.